EW5586 Weather Reports


time (UTC)temp
F
wind
direction
speed
knots
gust
knots
rain 1hr
in
rain 24hr
in
rain mn
in
humidity
%
barometer
mb
20260506110034 0 0.0 0.0 0.00 0.09 0.01 1010.0
20260506105447 0 0.0 0.0 0.00 0.09 0.01 1010.0
20260506104944 0 0.0 0.0 0.00 0.09 0.01 1009.9
20260506104429 0 0.0 0.0 0.00 0.09 0.01 1009.5
20260506103249 0 0.0 0.0 0.00 0.09 0.01 1009.8
20260506102747 0 0.0 0.0 0.00 0.09 0.01 1009.8
20260506102233 0 0.0 0.0 0.00 0.09 0.01 1009.7
20260506101640 0 0.0 0.0 0.00 0.09 0.01 1009.7
20260506100544 0 0.0 0.0 0.00 0.09 0.01 1009.5
20260506100045 0 0.0 0.0 0.00 0.09 0.01 1009.8
20260506095543 0 0.0 0.0 0.00 0.09 0.01 1009.7
20260506094449 0 0.0 0.0 0.00 0.09 0.01 1009.3
20260506093946 0 0.0 0.0 0.00 0.09 0.01 1009.2
20260506093436 0 0.0 0.0 0.00 0.09 0.01 1009.1
20260506092850 0 0.0 0.0 0.00 0.09 0.01 1009.2
20260506092330 0 0.0 0.0 0.00 0.09 0.01 1009.3
20260506091741 0 0.0 0.0 0.00 0.09 0.01 1009.2
20260506090634 0 0.0 0.0 0.00 0.09 0.01 1009.5
20260506090055 0 0.0 0.0 0.00 0.09 0.01 1009.5
20260506085546 0 0.0 0.0 0.00 0.09 0.01 1009.9
20260506085044 0 0.0 0.0 0.00 0.09 0.01 1009.9
20260506084543 0 0.0 0.0 0.00 0.09 0.01 1009.9
20260506084041 0 0.0 0.0 0.00 0.09 0.01 1010.0
20260506083539 0 0.0 0.0 0.00 0.09 0.01 1010.0
20260506082947 0 0.0 0.0 0.00 0.09 0.01 1010.0
20260506082441 0 0.0 0.0 0.00 0.09 0.01 1009.8
20260506081846 0 0.0 0.0 0.00 0.09 0.01 1009.8
20260506081337 45 0.0 0.0 0.00 0.09 0.01 92 1009.9
20260506080745 45 180 1.7 4.3 0.00 0.09 0.01 92 1009.8
20260506080222 45 180 1.7 5.2 0.00 0.09 0.01 92 1009.5
20260506073152 45 234 0.9 4.3 0.00 0.09 0.01 92 1009.2
20260506072646 45 208 1.7 4.3 0.00 0.09 0.01 92 1009.1
20260506072140 45 207 3.5 7.8 0.00 0.09 0.01 92 1009.0
20260506071128 45 219 4.3 8.7 0.01 0.09 0.01 92 1009.2
20260506070117 45 213 3.5 7.0 0.01 0.09 0.01 91 1009.2
20260506062027 45 158 7.8 12.2 0.01 0.09 0.01 93 1009.1
20260506061521 46 171 7.8 10.4 0.00 0.08 0.00 93 1009.3
20260506061015 46 0 7.8 12.2 0.00 0.08 0.00 93 1009.3
20260506060514 46 197 7.0 12.2 0.00 0.08 0.00 93 1009.3
20260506051011 46 221 7.8 10.4 0.00 0.08 0.00 92 1009.5
20260506044511 46 187 8.7 11.3 0.00 0.08 0.00 92 1009.4
20260506044012 46 195 8.7 12.2 0.00 0.08 0.00 93 1009.4
20260506043511 46 206 8.7 12.2 0.00 0.08 0.00 93 1009.4
20260506042511 46 208 9.6 13.0 0.00 0.08 0.00 93 1009.3
20260506042011 46 206 9.6 13.0 0.00 0.08 0.00 93 1009.1
20260506041011 46 210 9.6 11.3 0.00 0.08 0.00 93 1009.2
20260506040511 46 198 9.6 13.0 0.00 0.08 0.00 93 1009.1
20260506040011 46 217 9.6 13.0 0.00 0.08 0.00 93 1009.2
20260506035011 46 213 11.3 16.5 0.00 0.08 0.08 93 1009.4
20260506034511 46 0 11.3 16.5 0.00 0.08 0.08 93 1009.4
20260506034011 46 202 11.3 16.5 0.00 0.08 0.08 93 1009.4
20260506033511 47 218 9.6 16.5 0.00 0.08 0.08 93 1009.4
20260506033006 47 192 9.6 14.8 0.00 0.08 0.08 93 1009.4
20260506032505 47 195 10.4 14.8 0.00 0.08 0.08 93 1009.4
20260506032005 47 215 10.4 14.8 0.00 0.08 0.08 93 1009.4
20260506031505 47 223 10.4 14.8 0.00 0.08 0.08 93 1009.4
20260506031005 47 204 9.6 14.8 0.00 0.08 0.08 93 1009.3
20260506030505 47 221 9.6 12.2 0.00 0.08 0.08 93 1009.1
20260506030008 47 212 9.6 12.2 0.00 0.08 0.08 93 1009.0
20260506025505 47 215 8.7 12.2 0.00 0.08 0.08 93 1008.9
20260506025005 47 221 8.7 12.2 0.00 0.08 0.08 93 1008.9
20260506024505 47 211 8.7 12.2 0.00 0.08 0.08 93 1008.9
20260506024001 47 199 8.7 12.2 0.00 0.08 0.08 93 1009.0
20260506023501 47 0 8.7 13.0 0.01 0.08 0.08 93 1008.9
20260506023001 47 0 8.7 13.0 0.01 0.08 0.08 93 1008.9
20260506022502 47 188 7.8 10.4 0.01 0.08 0.08 93 1008.7
20260506022001 47 0 7.8 9.6 0.02 0.08 0.08 93 1008.6
20260506021502 47 0 7.8 10.4 0.02 0.08 0.08 93 1008.7
20260506021001 47 0 7.8 10.4 0.02 0.08 0.08 93 1008.5
20260506020501 47 186 7.8 9.6 0.02 0.08 0.08 93 1008.5
20260506020002 47 194 7.8 9.6 0.02 0.08 0.08 93 1008.5
20260506015501 47 0 7.8 9.6 0.03 0.08 0.08 93 1008.3
20260506015000 47 192 7.0 10.4 0.03 0.08 0.08 93 1008.3
20260506014501 47 220 7.0 10.4 0.04 0.08 0.08 93 1008.3
20260506014002 47 194 7.0 9.6 0.04 0.08 0.08 93 1008.2
20260506013001 48 202 7.0 9.6 0.03 0.07 0.07 92 1008.2
20260506011000 48 209 7.0 8.7 0.02 0.06 0.06 91 1008.4
20260506010501 48 225 7.0 9.6 0.03 0.06 0.06 91 1008.3
20260506010003 48 186 6.1 9.6 0.02 0.06 0.06 91 1008.3
20260506005502 48 208 5.2 9.6 0.02 0.05 0.05 91 1008.3
20260506005002 49 0 6.1 10.4 0.02 0.05 0.05 90 1008.2
20260506004500 49 232 7.8 10.4 0.02 0.04 0.04 90 1008.2
20260506004001 49 205 7.0 10.4 0.02 0.04 0.04 90 1008.1
20260506002958 49 225 5.2 8.7 0.03 0.04 0.04 88 1007.7
20260506001956 50 220 5.2 7.8 0.04 0.04 0.04 88 1007.6
20260506001456 50 215 5.2 7.8 0.04 0.04 0.04 87 1007.5
20260506000955 51 214 4.3 7.8 0.04 0.04 0.04 86 1007.4
20260506000448 51 210 3.5 7.0 0.03 0.03 0.03 86 1007.2
20260505235941 51 213 3.5 7.0 0.03 0.03 0.03 85 1007.0
20260505235435 51 225 4.3 7.0 0.03 0.03 0.03 84 1006.8
20260505234934 52 215 3.5 7.0 0.03 0.03 0.03 83 1006.7
20260505234434 52 207 2.6 7.8 0.02 0.02 0.02 81 1006.6
20260505233930 53 209 1.7 7.8 0.02 0.02 0.02 79 1006.6
20260505233430 53 239 0.9 7.0 0.02 0.02 0.02 78 1006.6
20260505232928 54 262 1.7 7.0 0.01 0.01 0.01 76 1006.5
20260505232428 55 227 1.7 8.7 0.01 0.01 0.01 74 1006.4
20260505231927 56 10 1.7 8.7 0.00 0.00 0.00 71 1006.2
20260505231428 57 244 1.7 9.6 0.00 0.00 0.00 68 1006.1
20260505230926 57 86 1.7 9.6 0.00 0.00 0.00 65 1006.0
20260505230426 58 315 1.7 7.0 0.00 0.00 0.00 62 1005.8
20260505225926 59 229 2.6 11.3 0.00 0.00 0.00 59 1005.6
20260505225424 60 351 2.6 11.3 0.00 0.00 0.00 56 1005.4
20260505224923 60 292 1.7 9.6 0.00 0.00 0.00 53 1005.4
20260505224424 60 244 1.7 8.7 0.00 0.00 0.00 53 1005.3
20260505223923 60 265 2.6 9.6 0.00 0.00 0.00 53 1005.1
20260505223417 60 208 2.6 9.6 0.00 0.00 0.00 53 1004.9
20260505222914 60 157 1.7 6.1 0.00 0.00 0.00 55 1004.7
20260505221900 61 255 2.6 9.6 0.00 0.00 0.00 57 1004.4
20260505221354 61 269 2.6 9.6 0.00 0.00 0.00 58 1004.4
20260505220847 61 244 1.7 6.1 0.00 0.00 0.00 57 1004.2
20260505220341 61 295 1.7 13.0 0.00 0.00 0.00 59 1004.4
20260505215834 61 214 1.7 13.0 0.00 0.00 0.00 60 1004.2
20260505215329 61 300 1.7 6.1 0.00 0.00 0.00 60 1004.1
20260505213809 62 0 2.6 8.7 0.00 0.00 0.00 61 1003.6
20260505213303 62 294 2.6 13.9 0.00 0.00 0.00 61 1003.3
20260505212758 62 236 2.6 13.9 0.00 0.00 0.00 62 1003.3
20260505212252 62 281 3.5 15.6 0.00 0.00 0.00 62 1003.5
20260505211240 63 316 2.6 13.0 0.00 0.00 0.00 62 1003.5
20260505210733 63 286 2.6 13.0 0.00 0.00 0.00 63 1003.3
20260505210227 63 117 3.5 16.5 0.00 0.00 0.00 62 1003.3
20260505205722 64 0 3.5 16.5 0.00 0.00 0.00 62 1003.2
20260505204203 67 127 3.5 14.8 0.00 0.00 0.00 64 1002.7
20260505203657 67 16 2.6 10.4 0.00 0.00 0.00 64 1002.5
20260505203151 67 244 1.7 8.7 0.00 0.00 0.00 64 1002.3
20260505202645 68 281 2.6 14.8 0.00 0.00 0.00 64 1002.2
20260505202140 68 213 3.5 14.8 0.00 0.00 0.00 62 1002.3
20260505201634 68 244 4.3 15.6 0.00 0.00 0.00 62 1002.2
20260505201127 69 188 5.2 15.6 0.00 0.00 0.00 62 1002.0
20260505200621 69 307 5.2 14.8 0.00 0.00 0.00 61 1002.1
20260505200115 69 234 4.3 14.8 0.00 0.00 0.00 60 1002.0
20260505195609 69 244 3.5 11.3 0.00 0.00 0.00 61 1001.9
20260505195106 69 216 5.2 19.1 0.00 0.00 0.00 60 1001.8
20260505194605 69 241 5.2 19.1 0.00 0.00 0.00 59 1001.9
20260505194106 70 0 5.2 15.6 0.00 0.00 0.00 58 1001.9
20260505193603 70 223 5.2 15.6 0.00 0.00 0.00 58 1001.9
20260505193101 70 250 6.1 18.2 0.00 0.00 0.00 57 1001.6
20260505192101 70 232 8.7 22.6 0.00 0.00 0.00 56 1001.6
20260505191600 71 219 7.0 22.6 0.00 0.00 0.00 55 1001.7
20260505191059 71 235 7.0 22.6 0.00 0.00 0.00 55 1001.5
20260505190602 71 287 7.0 23.5 0.00 0.00 0.00 54 1001.2
20260505184559 71 221 10.4 28.7 0.00 0.00 0.00 55 1001.3
20260505184100 70 214 10.4 26.9 0.00 0.00 0.00 58 1001.4
20260505183559 70 221 12.2 24.3 0.00 0.00 0.00 57 1001.1
20260505182559 70 235 13.0 27.8 0.00 0.00 0.00 56 1001.4
20260505182055 70 234 10.4 27.8 0.00 0.00 0.00 56 1001.3
20260505181556 69 225 8.7 20.0 0.00 0.00 0.00 58 1001.3
20260505181055 69 302 8.7 22.6 0.00 0.00 0.00 59 1001.3
20260505180556 69 225 8.7 22.6 0.00 0.00 0.00 59 1001.3
20260505180108 69 147 7.8 21.7 0.00 0.00 0.00 59 1001.1
20260505175556 69 196 8.7 21.7 0.00 0.00 0.00 62 1001.1
20260505175055 68 230 9.6 22.6 0.00 0.00 0.00 63 1001.3
20260505174054 67 231 9.6 22.6 0.00 0.00 0.00 65 1001.6
20260505173547 66 236 9.6 22.6 0.00 0.00 0.00 66 1001.6
20260505173041 66 203 9.6 21.7 0.00 0.00 0.00 66 1001.5
20260505172535 65 0 8.7 21.7 0.00 0.00 0.00 67 1001.6
20260505171523 64 251 13.9 22.6 0.00 0.00 0.00 68 1001.7
20260505170511 65 195 12.2 28.7 0.00 0.00 0.00 66 1001.7
20260505170006 65 193 12.2 28.7 0.00 0.00 0.00 66 1001.8
20260505165459 65 244 13.0 26.1 0.00 0.00 0.00 66 1001.5
20260505164953 65 188 13.0 23.5 0.00 0.00 0.00 66 1001.4
20260505163941 65 201 13.0 26.1 0.00 0.00 0.00 67 1001.5
20260505163435 65 220 13.0 26.1 0.00 0.00 0.00 67 1001.5
20260505162930 65 234 12.2 20.9 0.00 0.00 0.00 68 1001.3
20260505162423 65 175 11.3 24.3 0.00 0.00 0.00 66 1001.2
20260505161917 65 225 10.4 24.3 0.00 0.00 0.00 67 1001.0
20260505161411 65 217 9.6 19.1 0.00 0.00 0.00 67 1001.2
20260505160905 65 199 10.4 19.1 0.00 0.00 0.00 67 1001.2
20260505160359 65 240 11.3 18.2 0.00 0.00 0.00 66 1001.0
20260505153323 68 219 12.2 22.6 0.00 0.00 0.00 64 1001.1
20260505152817 67 198 13.9 24.3 0.00 0.00 0.00 65 1001.2
20260505152311 66 221 14.8 24.3 0.00 0.00 0.00 65 1001.1
20260505151805 66 201 13.9 21.7 0.00 0.00 0.00 67 1001.0
20260505151304 66 198 14.8 26.1 0.00 0.00 0.00 65 1000.9
20260505150806 66 231 13.9 26.1 0.00 0.00 0.00 66 1000.8
20260505150303 64 211 11.3 17.4 0.00 0.00 0.00 70 1000.8
20260505130254 57 222 8.7 13.9 0.00 0.00 0.00 83 1000.3
20260505124751 58 0 9.6 15.6 0.00 0.00 0.00 82 1000.4
20260505124251 58 221 9.6 15.6 0.00 0.00 0.00 83 1000.4
20260505123751 57 205 9.6 16.5 0.00 0.00 0.00 86 1000.5
20260505123250 55 219 8.7 16.5 0.00 0.00 0.00 86 1000.5
20260505122753 56 213 7.8 15.6 0.00 0.00 0.00 81 1000.6
20260505122251 58 0 8.7 15.6 0.00 0.00 0.00 79 1000.7
20260505121751 59 214 8.7 16.5 0.00 0.00 0.00 80 1000.6
20260505121251 59 207 8.7 16.5 0.00 0.00 0.00 81 1000.6
20260505120247 58 209 10.4 15.6 0.00 0.00 0.00 81 1000.6
20260505115747 58 218 10.4 15.6 0.00 0.00 0.00 83 1000.6
20260505115247 58 198 9.6 13.9 0.00 0.00 0.00 83 1000.5
20260505114747 58 229 8.7 13.9 0.00 0.00 0.00 83 1000.4
20260505113747 58 0 8.7 13.9 0.00 0.00 0.00 87 1000.5
20260505113248 56 211 8.7 13.9 0.00 0.00 0.00 88 1000.5
20260505112747 55 207 8.7 14.8 0.00 0.00 0.00 87 1000.6
20260505112248 55 181 7.8 14.8 0.00 0.00 0.00 89 1000.5
20260505111743 55 208 8.7 13.0 0.00 0.00 0.00 87 1000.5
20260505111244 56 200 8.7 13.0 0.00 0.00 0.00 89 1000.5
20260505110743 55 198 7.0 10.4 0.00 0.00 0.00 88 1000.4
20260505110243 55 213 7.0 9.6 0.00 0.00 0.00 87 1000.4